ROMMA est une association bénévole à but non lucratif. Votre soutien est indispensable : ADHERER à ROMMA ou FAIRE un DON

Lyon - (69, Rhône)

Plaine lyonnaise (169 m)   Longitude: 04° 49' 55" E   Latitude: 45° 43' 50" N Station partenaire n°124
 

Détail journalier du     <<     >>

Température Precipitation Humidité Pression Vent Dir Rafale Dir. rafale Ensol.
Heure (°C) (mm) (%) (hPa) (km/h) (km/h) (min)
01:00 5.709610201N5N0
02:00 4.4094102002N0
03:00 3.7095102003N0
04:00 6.109610191N6N0
05:00 6.209610192N6N0
06:00 6.209610192N8N0
07:00 5.709510184N16N0
08:00 5.309510187N18N0
09:00 5.909510186N18N0
10:00 5.809310188N19N0
11:00 6.109110179N31N20
12:00 7.008910178N21N0
13:00 7.808610169N23N0
14:00 9.308010159N23S10
15:00 10.3075101410SSO24SSO0
16:00 10.30.375101311S32N0
17:00 10.1075101315N34N0
18:00 9.9077101310N29N0
19:00 10.3075101215N40N0
20:00 10.7073101217N45N0
21:00
22:00
23:00
minuit

Graphique du 27-01-2020

 

Serveur OMMA